This demonstration page uses our WeatherBlox Daily Observations layout. Learn more.

Left ArrowRight Arrow

Hourly Observations for December 28, 2015

Temp ( °F °C ) Dew Point ( °F °C ) Humidity (%) Winds ( mph kmh ) Pressure ( in mb ) Visibility ( mi km ) Precip ( " mm )
12:51 am 00:51 Clear 34 1.1 26 -3.3 73 73 SE 8 13 30.04 1017 10 16 N/A
1:51 am 01:51 Clear 33 0.6 26 -3.3 75 75 ESE 6 9 30.03 1017 10 16 N/A
2:51 am 02:51 Clear 35 1.7 27 -2.8 72 72 SSE 6 9 30.01 1016 10 16 N/A
3:51 am 03:51 Clear 33 0.6 26 -3.3 75 75 ESE 7 11 30.00 1016 10 16 N/A
4:51 am 04:51 Clear 34 1.1 26 -3.3 73 73 E 9 15 29.98 1015 10 16 N/A
5:51 am 05:51 Clear 33 0.6 25 -3.9 72 72 SE 8 13 29.98 1015 10 16 N/A
6:51 am 06:51 Clear 31 -0.6 25 -3.9 79 79 SE 7 11 30.01 1016 10 16 N/A
7:51 am 07:51 Sunny 33 0.6 26 -3.3 75 75 ESE 9 15 30.00 1016 10 16 N/A
8:51 am 08:51 Sunny 39 3.9 26 -3.3 60 60 ESE 12 19 29.97 1015 10 16 N/A
9:51 am 09:51 Sunny 40 4.4 26 -3.3 58 58 SSE 7 11 29.98 1015 10 16 N/A
10:51 am 10:51 Mostly Sunny 44 6.7 26 -3.3 49 49 SE 10 17 29.95 1014 10 16 N/A
11:51 am 11:51 Mostly Sunny 47 8.3 26 -3.3 44 44 E 8 13 29.88 1012 10 16 N/A
12:51 pm 12:51 Sunny 48 8.9 25 -3.9 41 41 ESE 10 17 29.85 1011 10 16 N/A
1:51 pm 13:51 Sunny 50 10 26 -3.3 39 39 E 8 13 29.80 1009 10 16 N/A
2:51 pm 14:51 Sunny 49 9.4 25 -3.9 39 39 NE 5 7 29.79 1009 10 16 N/A
3:51 pm 15:51 Sunny 49 9.4 25 -3.9 39 39 N N/A 29.78 1009 10 16 N/A
4:51 pm 16:51 Sunny 48 8.9 25 -3.9 41 41 N N/A 29.78 1008 10 16 N/A
5:51 pm 17:51 Clear 42 5.6 26 -3.3 53 53 ENE 5 7 29.78 1009 10 16 N/A
6:51 pm 18:51 Clear 40 4.4 26 -3.3 58 58 E 6 9 29.79 1009 10 16 N/A
7:51 pm 19:51 Clear 39 3.9 26 -3.3 60 60 E 8 13 29.79 1009 10 16 N/A
8:51 pm 20:51 Clear 39 3.9 26 -3.3 60 60 E 8 13 29.78 1008 10 16 N/A
9:51 pm 21:51 Clear 38 3.3 26 -3.3 62 62 SSE 9 15 29.79 1009 10 16 N/A
10:51 pm 22:51 Clear 38 3.3 27 -2.8 65 65 ESE 8 13 29.79 1009 10 16 N/A
11:51 pm 23:51 Clear 36 2.2 26 -3.3 67 67 ESE 7 11 29.77 1008 10 16 N/A

Powered by AerisWeather